Weather History for KDUG - May, 2013

Change the Weather History Date:

Monday, May 13, 2013

  Actual Average Record
Temperature  
Mean Temperature 68 °F 69 °F  
Max Temperature 86 °F 87 °F 99 °F (1996)
Min Temperature 50 °F 51 °F 36 °F (1957)
Degree Days  
Heating Degree Days 0 1  
Month to date heating degree days 2 16  
Since 1 July heating degree days 2559 2517  
Cooling Degree Days 3 5  
Month to date cooling degree days 28 47  
Year to date cooling degree days 57 77  
Growing Degree Days 18 (Base 50)    
Moisture  
Dew Point 24 °F    
Average Humidity 21    
Maximum Humidity 35    
Minimum Humidity 6    
Precipitation  
Precipitation 0.00 in 0.01 in 0.02 in (1987)
Month to date precipitation 0.00 0.11  
Year to date precipitation 0.87 2.23  
Snow  
Snow 0.00 in - - ()
Month to date snowfall 0.0  
Snow Depth 0.00 in    
Sea Level Pressure  
Sea Level Pressure 29.99 in    
Wind  
Wind Speed 11 mph (ESE)    
Max Wind Speed 26 mph    
Max Gust Speed 38 mph    
Visibility 10 miles    
Events      
T = Trace of Precipitation, MM = Missing Value Source: NWS Daily Summary

Daily Weather History Graph

Daily Weather History Graph

Search for Another Location

Airport or City:

Trip Planner

Search our weather history database for the weather conditions in past years. The results will help you decide how hot, cold, wet, or windy it might be!

Date:

Astronomy

May. 13, 2013 Rise Set
Actual Time 5:23 AM MST 7:06 PM MST
Civil Twilight 4:56 AM MST 7:33 PM MST
Nautical Twilight 4:24 AM MST 8:05 PM MST
Astronomical Twilight 3:51 AM MST 8:39 PM MST
Moon 8:13 AM MST (5/13) 10:17 PM MST (5/13)
Length of Visible Light 14h 36m
Length of Day
13h 43m
Waxing Crescent, 13% of the Moon is Illuminated
May 13
Waxing Crescent
May 17
First Quarter
May 24
Full
May 31
Last Quarter
Jun 8
New

Hourly Weather History & Observations

Time (MST) Temp. Dew Point Humidity Pressure Visibility Wind Dir Wind Speed Gust Speed Precip Events Conditions
12:56 AM 61.0 °F 26.1 °F 26% 30.00 in 10.0 mi ENE 9.2 mph - N/A   Clear
1:56 AM 57.9 °F 26.1 °F 30% 30.01 in 10.0 mi ENE 8.1 mph - N/A   Clear
2:56 AM 51.1 °F 23.0 °F 33% 30.03 in 10.0 mi SSE 4.6 mph - N/A   Clear
3:56 AM 57.0 °F 26.1 °F 30% 30.01 in 10.0 mi Calm Calm - N/A   Clear
4:56 AM 53.1 °F 26.1 °F 35% 30.02 in 10.0 mi ENE 6.9 mph - N/A   Clear
5:56 AM 62.1 °F 30.0 °F 30% 30.02 in 10.0 mi East 8.1 mph - N/A   Clear
6:56 AM 66.9 °F 32.0 °F 27% 30.04 in 10.0 mi East 10.4 mph - N/A   Clear
7:56 AM 72.0 °F 33.1 °F 24% 30.05 in 10.0 mi East 13.8 mph - N/A   Clear
8:56 AM 73.9 °F 34.0 °F 23% 30.05 in 10.0 mi SE 16.1 mph 21.9 mph N/A   Clear
9:56 AM 77.0 °F 32.0 °F 19% 30.04 in 10.0 mi ESE 16.1 mph 26.5 mph N/A   Clear
10:56 AM 82.0 °F 30.9 °F 16% 30.02 in 10.0 mi East 15.0 mph 31.1 mph N/A   Clear
11:56 AM 82.9 °F 25.0 °F 12% 30.00 in 10.0 mi East 15.0 mph 29.9 mph N/A   Clear
1:56 PM 82.9 °F 19.0 °F 9% 29.96 in 10.0 mi East 10.4 mph 25.3 mph N/A   Clear
2:54 PM 84.2 °F 15.8 °F 8% 30.12 in 10.0 mi East 13.8 mph 21.9 mph N/A   Clear
2:56 PM 84.9 °F 15.1 °F 7% 29.95 in 10.0 mi SE 12.7 mph 21.9 mph N/A   Clear
3:56 PM 82.9 °F 12.9 °F 7% 29.92 in 10.0 mi South 3.5 mph - N/A   Clear
4:56 PM 82.9 °F 10.9 °F 7% 29.93 in 10.0 mi East 13.8 mph 20.7 mph N/A   Clear
5:56 PM 82.0 °F 15.1 °F 8% 29.90 in 10.0 mi SE 17.3 mph 23.0 mph N/A   Clear
6:56 PM 78.1 °F 18.0 °F 10% 29.91 in 10.0 mi ESE 11.5 mph - N/A   Clear
7:56 PM 73.9 °F 18.0 °F 12% 29.92 in 10.0 mi East 10.4 mph - N/A   Clear
8:56 PM 70.0 °F 19.9 °F 15% 29.93 in 10.0 mi East 8.1 mph - N/A   Clear
9:56 PM 68.0 °F 30.9 °F 25% 29.96 in 10.0 mi SSE 10.4 mph - N/A   Clear
10:56 PM 64.0 °F 33.1 °F 31% 29.96 in 10.0 mi ESE 8.1 mph - N/A   Clear
11:56 PM 61.0 °F 32.0 °F 34% 29.96 in 10.0 mi ESE 8.1 mph - N/A   Clear